This is the latest recevied weather packets stored in our database for station/object W7PLC. If no packets are shown the sender has not sent any weather packets the latest 1 day(s).
| Time | Temp. | Humidity | Pressure | Rain* | Wind** | Luminosity | Snow |
|---|---|---|---|---|---|---|---|
| 1778008418 | 15° C | 83% | 1014.8 hPa | 0 mm | 0 m/s | 77 W/m² | - |
| 1778008114 | 15° C | 83% | 1015 hPa | 0 mm | 0 m/s | 76 W/m² | - |
| 1778007810 | 15° C | 83% | 1014.7 hPa | 0 mm | 0 m/s | 66 W/m² | - |
| 1778007506 | 15° C | 83% | 1014.6 hPa | 0 mm | 0 m/s | 65 W/m² | - |
| 1778007203 | 15° C | 83% | 1014.9 hPa | 0 mm | 0 m/s | 64 W/m² | - |
| 1778006899 | 15° C | 84% | 1014.7 hPa | 0 mm | 0 m/s | 67 W/m² | - |
| 1778006596 | 15° C | 84% | 1014.8 hPa | 0 mm | 0 m/s | 63 W/m² | - |
| 1778006293 | 15° C | 83% | 1015 hPa | 0 mm | 0.45 m/s, 2° | 61 W/m² | - |
| 1778005990 | 15° C | 84% | 1014.8 hPa | 0 mm | 0 m/s | 62 W/m² | - |
| 1778005687 | 15° C | 84% | 1014.8 hPa | 0 mm | 0 m/s | 57 W/m² | - |
| 1778005383 | 15° C | 84% | 1014.9 hPa | 0 mm | 0 m/s | 55 W/m² | - |
| 1778005080 | 15° C | 84% | 1014.8 hPa | 0 mm | 0 m/s | 57 W/m² | - |
| 1778004777 | 15° C | 85% | 1014.7 hPa | 0 mm | 0 m/s | 55 W/m² | - |
| 1778004474 | 15° C | 85% | 1014.7 hPa | 0 mm | 0 m/s | 55 W/m² | - |
| 1778004170 | 14.44° C | 85% | 1014.8 hPa | 0 mm | 0 m/s | 56 W/m² | - |
| 1778003867 | 14.44° C | 85% | 1014.7 hPa | 0 mm | 0 m/s | 53 W/m² | - |
| 1778003563 | 14.44° C | 85% | 1014.7 hPa | 0 mm | 0 m/s | 50 W/m² | - |
| 1778003260 | 14.44° C | 85% | 1014.7 hPa | 0 mm | 0 m/s | 48 W/m² | - |
| 1778002957 | 14.44° C | 85% | 1014.7 hPa | 0 mm | 0 m/s | 46 W/m² | - |
| 1778002653 | 14.44° C | 86% | 1014.7 hPa | 0 mm | 0 m/s | 47 W/m² | - |
| 1778002350 | 13.89° C | 86% | 1014.8 hPa | 0 mm | 0 m/s | 45 W/m² | - |
| 1778002047 | 13.89° C | 86% | 1014.7 hPa | 0 mm | 0 m/s | 42 W/m² | - |
| 1778001744 | 13.89° C | 87% | 1014.6 hPa | 0 mm | 0 m/s | 45 W/m² | - |
| 1778001443 | 13.89° C | 87% | 1014.5 hPa | 0 mm | 0 m/s | 45 W/m² | - |
| 1778001141 | 13.89° C | 86% | 1014.6 hPa | 0 mm | 0 m/s | 42 W/m² | - |
* Rain latest hour (hover to see other rain measurements)
** Current wind speed in m/s (hover to see current wind gust speed)